Wind_Speed
72 69 68 67 68 67 65 62 62 61 61 60 57 58 62 54 50 43 40 38 37 37 36 34 32 32 31 31 30 30 29 27 29 29 29 23 22 20 18 20 21 24 23 21 20
72 73 69 67 66 68 67 64 61 60 59 59 60 58 57 57 62 57 46 41 40 39 39 38 35 35 35 34 33 33 31 31 30 30 31 27 23 21 19 21 19 23 24 23 24
77 72 70 68 68 66 67 65 65 61 61 60 57 58 58 59 55 58 55 48 43 42 42 41 40 39 38 38 37 36 35 34 33 33 34 32 25 23 20 20 20 22 26 26 25
54 77 72 69 66 70 64 69 63 66 63 63 60 59 57 54 54 51 53 55 48 44 42 41 43 43 42 42 41 40 38 37 36 33 36 36 31 24 20 22 24 23 24 27 27
40 53 72 67 69 64 64 64 66 63 64 62 61 61 60 56 54 51 51 53 51 51 45 41 43 44 44 43 42 42 41 39 38 38 37 38 36 31 24 26 25 26 27 28 28
46 41 52 73 66 66 70 63 64 61 58 62 65 60 59 58 56 55 52 51 52 53 48 47 46 45 47 45 45 43 42 42 40 40 40 41 40 35 31 30 29 29 28 30 31
46 39 40 48 78 69 62 69 72 69 70 71 63 63 62 55 56 55 54 52 51 48 48 47 48 49 46 45 45 45 43 43 42 40 42 41 43 36 33 35 32 30 30 30 31
49 53 48 46 57 75 70 65 65 65 64 62 63 67 64 62 56 53 55 53 51 49 45 43 44 45 47 49 43 43 45 45 41 39 42 44 43 35 37 37 36 33 31 32 34
51 54 54 53 44 55 71 71 63 62 63 64 61 60 64 62 60 57 50 49 50 49 52 53 44 39 42 42 44 43 42 41 41 41 44 44 44 39 40 37 38 37 34 33 34
57 54 51 47 43 46 47 62 51 64 64 64 61 57 57 53 52 51 52 53 50 45 46 48 50 48 50 47 41 42 46 42 39 41 44 45 42 41 43 39 39 38 36 35 38
59 56 56 50 52 44 50 41 59 61 73 62 57 58 55 54 51 50 49 50 49 52 47 47 47 44 38 41 46 49 39 43 40 40 43 44 44 42 43 42 39 39 36 37 39
61 58 58 49 47 53 48 47 44 50 56 64 63 57 58 55 53 51 46 47 46 46 45 47 49 46 47 48 46 46 44 43 46 44 40 40 40 41 43 42 40 40 40 40 40
66 62 60 55 52 53 50 42 43 42 49 49 50 57 60 56 52 52 50 48 48 48 46 46 46 47 45 44 44 41 40 37 41 44 43 42 43 40 43 45 44 44 42 43 41
74 61 63 64 57 55 50 45 42 46 50 54 49 51 58 57 55 55 51 52 48 48 48 49 48 46 44 44 43 44 42 42 38 41 47 43 50 43 42 46 47 46 44 45 44
83 67 69 62 57 59 52 49 44 47 54 55 54 50 47 51 49 50 49 47 49 49 48 46 48 48 49 45 47 44 42 42 45 47 49 47 49 45 43 46 49 48 46 45 46
65 82 73 68 54 59 53 52 53 57 62 57 53 53 49 46 42 47 49 48 49 51 52 54 52 52 52 49 47 46 43 41 40 41 47 46 47 53 46 44 47 46 46 46 47
59 78 86 66 57 61 59 55 63 67 59 54 51 50 51 48 45 44 42 43 48 49 49 52 55 55 54 50 50 50 45 44 44 46 46 46 42 46 42 43 44 46 47 48 48
56 71 83 66 47 65 61 65 70 66 57 50 43 45 50 49 49 48 42 41 42 44 46 49 52 54 56 54 50 47 47 47 49 50 49 53 48 44 46 43 44 45 47 47 48
53 69 86 75 51 56 54 71 71 58 54 49 46 45 44 48 50 44 36 36 38 38 38 42 48 49 51 52 54 54 55 50 49 52 53 52 54 49 43 44 43 47 48 47 48
47 59 80 80 56 54 58 68 68 56 54 53 51 44 39 43 45 47 43 35 30 32 31 32 37 44 47 51 55 56 51 51 53 55 55 55 51 50 50 46 44 43 46 48 48
49 57 66 93 84 57 67 65 72 62 53 55 49 46 41 38 39 39 37 34 34 33 32 32 33 39 45 50 53 54 54 51 50 49 51 53 54 50 48 50 52 53 53 50 49
51 57 56 74 82 76 71 70 67 69 58 52 51 43 39 35 35 36 34 35 33 34 33 34 34 37 43 44 45 49 53 54 54 53 49 48 52 53 47 48 51 51 49 48 48
50 50 49 51 77 82 60 61 63 60 57 52 47 43 41 39 40 39 35 32 34 35 36 38 37 36 40 42 44 48 50 51 52 56 56 53 52 51 57 57 55 53 51 51 54
51 54 48 53 66 76 70 63 61 50 62 57 53 45 45 44 43 41 40 37 34 32 34 37 39 38 37 40 42 42 41 41 46 52 53 59 59 58 58 58 60 59 59 60 60
59 56 50 51 46 63 70 56 50 60 55 60 55 51 47 46 45 45 43 38 34 33 33 34 37 34 34 36 37 38 41 43 46 45 49 51 54 54 54 53 52 55 56 57 58
71 62 55 52 50 74 74 58 60 61 55 52 49 51 49 46 42 40 37 33 29 32 34 30 33 33 33 34 36 33 34 38 43 43 44 48 50 49 48 52 54 53 55 54 52
55 71 57 49 56 70 67 46 49 53 54 57 52 54 50 46 43 38 39 36 34 34 33 32 34 33 33 33 33 35 33 33 34 38 39 42 38 41 43 44 46 49 47 46 47
Wind_Direction
224 225 225 227 225 226 227 227 227 226 227 228 228 228 230 232 232 230 231 230 230 231 232 231 231 235 236 239 241 244 246 248 248 254 258 249 249 243 228 233 234 231 237 237 236
223 221 224 224 227 225 229 228 225 228 229 230 231 233 232 231 231 233 233 231 232 233 233 236 234 235 238 241 242 246 248 252 254 258 262 260 256 250 243 234 232 231 239 242 246
222 222 220 224 225 226 227 227 228 228 228 229 230 232 235 235 234 228 233 232 232 233 233 235 236 238 240 242 244 245 249 253 255 258 263 262 254 248 247 240 236 226 231 241 245
233 226 220 222 223 223 228 226 227 227 229 229 230 232 233 233 234 233 235 231 234 234 235 237 238 237 240 242 245 248 249 253 256 255 261 262 259 252 245 235 241 235 233 241 245
229 234 228 216 223 223 223 225 225 226 226 228 231 231 233 234 235 234 234 232 238 238 238 238 241 241 241 244 247 249 251 255 256 256 256 259 259 259 246 243 240 242 240 241 244
223 228 229 226 216 222 223 225 222 223 225 225 226 231 233 234 234 237 235 235 236 237 239 241 242 245 244 244 247 249 251 253 256 257 256 255 256 254 255 251 247 247 246 250 250
221 226 224 230 226 216 222 223 225 225 226 229 225 228 229 233 233 235 239 238 238 239 237 241 242 243 245 245 245 249 251 253 254 257 258 257 253 257 252 252 250 250 251 253 254
220 231 228 227 226 226 220 222 226 226 225 226 228 228 228 229 232 233 237 239 239 238 239 243 246 248 249 246 248 251 251 253 256 258 259 257 250 254 253 250 251 252 253 253 253
202 200 220 233 223 228 226 225 224 229 226 229 228 227 230 231 234 231 232 237 240 238 243 241 240 245 248 251 251 250 255 259 257 256 257 256 252 252 252 252 249 249 253 256 259
206 198 213 215 226 229 227 224 226 226 229 228 226 225 224 227 228 229 234 237 240 242 239 241 251 249 247 247 257 254 252 256 260 255 254 255 255 250 251 250 249 252 254 257 259
209 198 201 214 222 227 231 216 219 227 235 234 228 226 225 228 226 228 232 235 237 239 243 242 245 248 246 251 251 247 250 251 258 261 255 256 257 250 249 251 249 251 255 257 260
202 197 192 211 212 223 225 231 229 231 234 237 230 224 225 223 226 228 228 231 236 239 240 242 247 246 251 246 254 261 260 258 255 257 255 254 257 254 248 246 243 242 246 251 256
197 196 192 197 208 218 225 227 233 229 228 231 235 227 221 224 227 230 231 231 233 234 237 242 244 245 246 251 254 255 262 259 255 250 252 250 251 253 249 247 241 241 244 250 254
206 201 197 194 204 216 215 219 227 230 230 229 227 227 227 229 232 233 231 229 230 233 236 238 239 239 242 247 255 262 261 260 259 256 250 250 249 249 252 249 244 240 241 246 250
218 196 203 191 208 208 213 213 222 226 225 227 224 224 225 229 234 235 231 230 232 233 234 236 237 239 242 249 256 257 259 257 256 256 254 251 254 243 251 249 247 244 242 244 249
219 211 202 183 198 202 207 214 220 219 221 226 225 225 226 225 230 228 231 234 232 233 234 235 235 237 241 247 250 253 257 257 258 259 256 252 253 255 248 252 251 248 247 246 247
216 216 208 202 194 198 203 211 209 212 216 223 228 231 226 226 228 228 232 234 237 239 239 239 239 238 238 242 245 250 253 257 257 259 261 257 251 256 255 249 249 250 250 250 250
214 215 209 185 185 193 203 208 209 213 215 221 220 223 224 226 225 226 229 232 231 232 235 240 244 245 246 250 251 251 249 249 251 255 260 257 255 251 257 256 251 250 250 250 252
214 212 213 187 181 183 198 212 212 214 214 216 213 212 215 217 217 217 223 225 227 233 240 243 245 247 245 244 245 246 247 249 252 257 258 260 258 254 258 260 256 253 254 253 253
216 214 212 199 179 180 206 215 217 214 210 211 215 213 216 215 214 216 218 223 228 232 239 243 242 245 242 242 243 244 244 247 249 252 255 258 261 261 256 259 260 257 253 253 255
217 215 211 207 195 194 202 207 213 215 214 211 214 213 213 215 218 221 228 234 232 235 235 242 246 246 244 246 245 245 247 250 250 251 254 257 258 261 260 258 261 261 261 260 260
217 215 215 215 216 198 196 199 211 214 209 210 211 213 215 223 227 226 226 226 227 229 236 241 247 248 249 246 246 245 245 247 246 244 248 256 258 260 262 260 259 262 264 263 264
216 219 217 220 219 212 195 198 209 217 207 209 212 215 219 220 223 223 225 224 227 230 236 239 241 247 247 247 242 242 241 244 249 249 248 253 256 257 260 262 263 264 266 270 274
213 218 219 218 221 215 205 199 205 212 217 213 212 217 223 229 226 225 226 229 230 233 235 239 238 240 243 248 249 249 249 250 250 249 249 250 255 258 262 264 265 269 271 272 272
220 221 217 218 214 210 205 199 202 210 212 207 214 220 225 230 227 229 231 231 233 234 234 239 244 242 243 246 250 248 247 245 246 249 251 252 251 254 258 262 265 265 267 269 271
218 221 218 219 219 211 204 207 205 208 207 206 211 216 227 229 232 239 239 244 248 245 241 238 241 243 244 243 245 248 252 252 251 250 251 255 256 257 257 256 260 265 266 270 273
218 217 214 213 215 211 206 207 207 206 209 214 219 222 224 229 235 231 235 236 239 239 243 244 242 242 243 245 248 245 249 255 259 260 259 259 264 263 262 263 263 265 270 271 272
Height
5678 5689 5697 5706 5715 5723 5730 5738 5744 5751 5759 5766 5771 5777 5783 5789 5795 5800 5805 5811 5816 5819 5823 5827 5830 5833 5836 5839 5841 5842 5845 5848 5850 5851 5852 5857 5858 5860 5862 5863 5864 5865 5867 5869 5870
5665 5674 5685 5694 5703 5712 5720 5727 5734 5742 5750 5757 5763 5769 5774 5780 5786 5793 5799 5803 5809 5814 5818 5821 5825 5828 5832 5835 5837 5838 5842 5843 5847 5849 5849 5852 5854 5856 5859 5859 5861 5863 5863 5866 5867
5651 5661 5672 5683 5691 5700 5709 5717 5725 5732 5740 5747 5753 5760 5766 5772 5778 5786 5791 5796 5802 5807 5812 5815 5819 5822 5826 5829 5833 5835 5838 5839 5843 5845 5845 5847 5850 5852 5854 5856 5857 5859 5860 5860 5864
5642 5649 5658 5669 5680 5689 5698 5708 5716 5723 5730 5737 5744 5750 5757 5764 5770 5777 5783 5789 5794 5800 5805 5808 5812 5816 5820 5823 5826 5829 5832 5834 5838 5841 5841 5842 5845 5848 5850 5853 5852 5854 5856 5857 5859
5633 5640 5648 5657 5668 5678 5688 5696 5705 5712 5720 5728 5735 5741 5748 5755 5762 5770 5774 5781 5787 5792 5797 5801 5805 5809 5813 5817 5820 5822 5827 5828 5832 5835 5837 5838 5840 5843 5846 5848 5849 5849 5851 5852 5855
5625 5634 5640 5647 5656 5668 5676 5686 5693 5702 5710 5717 5725 5732 5740 5747 5752 5758 5767 5772 5778 5783 5787 5793 5798 5803 5807 5810 5813 5817 5820 5822 5825 5828 5830 5832 5835 5838 5840 5842 5844 5845 5846 5847 5848
5615 5625 5632 5640 5648 5656 5666 5675 5683 5691 5700 5709 5716 5723 5731 5739 5744 5750 5757 5764 5769 5774 5779 5784 5790 5795 5799 5802 5806 5810 5813 5815 5818 5821 5823 5826 5828 5834 5835 5835 5838 5840 5841 5841 5843
5607 5618 5624 5632 5639 5647 5655 5662 5669 5678 5687 5696 5705 5714 5722 5729 5735 5742 5748 5755 5761 5766 5772 5777 5782 5786 5790 5795 5800 5803 5806 5807 5813 5816 5816 5819 5822 5828 5827 5830 5832 5834 5835 5836 5837
5596 5607 5615 5624 5630 5639 5647 5653 5660 5667 5674 5684 5695 5704 5712 5722 5728 5734 5740 5747 5752 5758 5763 5768 5773 5778 5782 5787 5791 5795 5798 5802 5805 5808 5808 5811 5816 5820 5821 5823 5825 5828 5829 5830 5831
5584 5595 5606 5615 5623 5631 5638 5646 5653 5656 5664 5675 5685 5696 5704 5712 5717 5724 5730 5737 5743 5749 5756 5760 5765 5771 5775 5779 5784 5787 5789 5793 5797 5800 5800 5802 5808 5812 5813 5816 5818 5821 5823 5824 5823
5574 5583 5596 5605 5615 5623 5627 5633 5642 5647 5658 5667 5681 5688 5695 5702 5708 5716 5722 5729 5735 5742 5748 5753 5758 5765 5767 5770 5772 5776 5779 5784 5789 5790 5792 5794 5799 5804 5806 5809 5812 5815 5816 5815 5815
5564 5572 5586 5598 5605 5614 5617 5626 5638 5646 5650 5656 5666 5677 5683 5692 5700 5707 5715 5722 5727 5734 5739 5746 5752 5756 5758 5760 5765 5769 5772 5776 5779 5782 5784 5786 5791 5796 5798 5801 5803 5805 5806 5808 5809
5553 5564 5575 5589 5598 5600 5612 5624 5629 5636 5639 5646 5656 5668 5674 5683 5689 5698 5705 5712 5718 5724 5730 5736 5742 5746 5750 5754 5757 5761 5764 5766 5768 5772 5773 5777 5782 5786 5790 5792 5794 5796 5798 5799 5803
5541 5555 5566 5575 5586 5592 5603 5614 5621 5627 5628 5634 5646 5655 5664 5672 5679 5687 5695 5702 5710 5716 5721 5726 5732 5738 5742 5746 5749 5752 5756 5757 5760 5763 5765 5768 5771 5778 5781 5783 5786 5788 5790 5791 5793
5527 5542 5554 5561 5578 5586 5600 5606 5612 5617 5614 5624 5636 5647 5656 5664 5675 5680 5687 5694 5702 5707 5714 5720 5724 5730 5734 5740 5740 5744 5747 5748 5749 5752 5756 5760 5761 5771 5772 5776 5776 5778 5781 5783 5784
5515 5528 5542 5547 5565 5580 5589 5599 5601 5603 5600 5614 5629 5638 5649 5656 5663 5670 5677 5684 5690 5695 5703 5707 5714 5719 5725 5729 5732 5735 5739 5742 5742 5744 5745 5751 5754 5754 5766 5767 5768 5770 5772 5773 5774
5503 5513 5528 5542 5562 5569 5579 5584 5584 5582 5596 5608 5624 5634 5642 5649 5656 5662 5669 5675 5682 5689 5695 5700 5705 5711 5716 5719 5723 5727 5732 5735 5737 5736 5737 5742 5748 5749 5752 5757 5759 5760 5762 5763 5764
5492 5501 5516 5535 5547 5556 5565 5568 5564 5574 5592 5608 5618 5622 5631 5639 5646 5655 5660 5667 5672 5678 5685 5689 5695 5701 5708 5713 5718 5722 5724 5725 5725 5726 5729 5730 5735 5740 5741 5747 5749 5750 5751 5752 5753
5481 5492 5505 5524 5535 5541 5550 5547 5554 5574 5589 5600 5606 5612 5621 5632 5640 5648 5655 5661 5666 5672 5678 5682 5685 5690 5695 5700 5706 5710 5711 5718 5719 5719 5720 5721 5725 5732 5733 5735 5739 5739 5739 5741 5741
5474 5482 5498 5513 5524 5529 5535 5541 5555 5569 5580 5588 5598 5608 5618 5625 5632 5640 5647 5655 5659 5665 5668 5672 5675 5680 5685 5689 5692 5696 5703 5706 5707 5709 5711 5714 5717 5721 5725 5726 5727 5727 5727 5729 5731
5464 5473 5488 5498 5507 5512 5520 5531 5548 5562 5571 5582 5592 5603 5614 5622 5629 5636 5644 5649 5653 5657 5659 5662 5667 5672 5675 5678 5683 5689 5692 5698 5701 5703 5703 5705 5707 5711 5713 5716 5715 5713 5717 5719 5720
5458 5465 5475 5481 5487 5497 5514 5526 5541 5552 5563 5575 5586 5597 5607 5615 5621 5626 5634 5640 5644 5647 5651 5655 5658 5662 5667 5671 5674 5677 5682 5685 5687 5691 5694 5696 5699 5700 5703 5703 5703 5703 5704 5706 5706
5454 5460 5466 5468 5474 5489 5509 5522 5534 5545 5559 5570 5581 5590 5600 5605 5611 5619 5625 5631 5634 5638 5643 5647 5650 5653 5657 5660 5661 5663 5669 5674 5678 5682 5686 5688 5690 5690 5690 5692 5692 5693 5693 5691 5692
5442 5445 5452 5457 5472 5487 5503 5515 5527 5541 5553 5564 5576 5585 5591 5596 5605 5613 5619 5623 5627 5631 5634 5638 5641 5644 5649 5652 5655 5659 5663 5667 5668 5670 5675 5677 5679 5679 5680 5680 5678 5680 5680 5679 5679
5428 5436 5449 5455 5466 5480 5498 5510 5520 5532 5543 5558 5568 5578 5586 5592 5599 5606 5612 5616 5619 5623 5627 5631 5636 5637 5639 5642 5645 5648 5651 5655 5656 5661 5661 5668 5667 5669 5668 5667 5666 5664 5664 5665 5667
5418 5431 5444 5457 5464 5480 5490 5503 5517 5529 5543 5554 5566 5575 5580 5588 5597 5603 5606 5609 5614 5618 5622 5627 5629 5630 5632 5635 5636 5639 5642 5645 5647 5648 5651 5653 5658 5661 5659 5654 5653 5654 5653 5655 5656
5407 5424 5440 5451 5459 5472 5486 5500 5516 5527 5540 5551 5563 5569 5575 5583 5589 5592 5594 5599 5606 5610 5615 5618 5621 5623 5625 5628 5631 5632 5635 5637 5641 5642 5644 5643 5649 5645 5645 5644 5644 5644 5646 5646 5645